Location: Asheville, NC
(35.6000°N, 82.5500°W)
Time: 01:15:10
(UTC-05:00)

CUBEBUG 2 - Visible Passes

Search period start: 21 January 2018 00:00
Search period end: 31 January 2018 00:00
Orbit: 587 x 699 km, 97.6° (Epoch: 20 January)

Date Brightness Start Highest point End Pass type
(mag) Time Alt. Az. Time Alt. Az. Time Alt. Az.
21 Jan ? 06:53:02 10° NE 06:56:50 23° E 07:00:35 10° SSE visible
21 Jan ? 19:23:30 10° S 19:27:42 50° W 19:32:05 10° NNW visible
22 Jan ? 18:12:17 10° ESE 18:15:48 24° ENE 18:19:23 10° NNE visible
22 Jan ? 19:48:36 10° SSW 19:52:15 26° W 19:56:01 10° NW visible
23 Jan ? 18:35:54 10° SE 18:40:03 44° ENE 18:44:22 10° N visible
23 Jan ? 20:14:37 10° WSW 20:16:53 14° W 20:19:12 10° WNW visible
24 Jan ? 06:31:11 10° ENE 06:33:23 13° E 06:35:35 10° ESE visible
24 Jan ? 19:00:02 10° SSE 19:04:24 86° ENE 19:08:59 10° N visible
25 Jan ? 06:54:11 10° NE 06:58:02 24° E 07:01:50 10° SSE visible
25 Jan ? 19:24:37 10° S 19:28:51 48° W 19:33:16 10° NNW visible
26 Jan ? 18:13:17 10° SE 18:16:56 25° ENE 18:20:41 10° NNE visible
26 Jan ? 19:49:45 10° SSW 19:53:25 25° W 19:57:12 10° NW visible
27 Jan ? 18:36:56 10° SSE 18:41:12 47° ENE 18:45:37 10° N visible
27 Jan ? 20:15:51 10° WSW 20:18:03 13° W 20:20:18 10° WNW visible
28 Jan ? 06:32:14 10° ENE 06:34:36 14° E 06:36:55 10° ESE visible
28 Jan ? 19:01:06 10° SSE 19:05:33 90° W 19:10:12 10° NNW visible
29 Jan ? 06:55:20 10° NE 06:59:14 25° E 07:03:02 10° SSE visible
29 Jan ? 19:25:44 10° S 19:30:01 46° W 19:34:28 10° NNW visible
30 Jan ? 19:50:55 10° SSW 19:54:35 24° W 19:58:21 10° NW visible
